When you browse on this site, cookies collect data to enhance your experience and personalize the content and advertising you see.
Visit our Privacy Policy to learn more. By continuing to use the site, you agree to this use of cookies and data.
  • In Hungary
  • List of Countries
  • For 7 days
  • Water Temperature
  • Weather Map
  • News
  • Weather Widgets
  • user-avatar
    Login

    Hourly Weather Waren

    Today, 12 December, Thursday

    Time Temperature Precipitation Wind Pressure Humidity
    00:00 +1°C° 0.4 mm 3 mps 746 mmHg 92%
    01:00 +2°C° 0 mm 2 mps 746 mmHg 91%
    02:00 +2°C° 0.5 mm 2 mps 746 mmHg 93%
    03:00 +2°C° 0.5 mm 2 mps 745 mmHg 95%
    04:00 +2°C° 0.5 mm 2 mps 745 mmHg 97%
    05:00 +2°C° 0.1 mm 2 mps 745 mmHg 97%
    06:00 +3°C° 0.1 mm 2 mps 745 mmHg 97%
    07:00 +1°C° 0 mm 3 mps 745 mmHg 93%
    08:00 +2°C° 0 mm 3 mps 744 mmHg 92%
    09:00 +2°C° 0 mm 3 mps 744 mmHg 92%
    10:00 +1°C° 0 mm 4 mps 744 mmHg 91%
    11:00 +1°C° 0 mm 4 mps 744 mmHg 90%
    12:00 +3°C° 0 mm 4 mps 744 mmHg 88%
    13:00 +3°C° 0 mm 4 mps 744 mmHg 86%
    14:00 +3°C° 0 mm 4 mps 744 mmHg 87%
    15:00 +3°C° 0 mm 4 mps 743 mmHg 88%
    16:00 +2°C° 0 mm 3 mps 743 mmHg 89%
    17:00 +2°C° 0 mm 3 mps 743 mmHg 89%
    18:00 +2°C° 0 mm 3 mps 743 mmHg 89%
    19:00 +2°C° 0 mm 3 mps 743 mmHg 90%
    20:00 +1°C° 0 mm 4 mps 742 mmHg 90%
    21:00 +1°C° 0 mm 4 mps 741 mmHg 91%
    22:00 0°C° 0 mm 4 mps 741 mmHg 92%
    23:00 0°C° 0 mm 4 mps 740 mmHg 92%

    Tomorrow, 13 December, Friday

    Time Temperature Precipitation Wind Pressure Humidity
    00:00 0°C° 0 mm 4 mps 739 mmHg 93%
    01:00 -1°C° 0 mm 5 mps 739 mmHg 93%
    02:00 -1°C° 0 mm 5 mps 738 mmHg 92%
    03:00 -1°C° 0 mm 5 mps 737 mmHg 91%
    04:00 -1°C° 0 mm 5 mps 736 mmHg 90%
    05:00 -1°C° 0 mm 5 mps 735 mmHg 90%
    06:00 -3°C° 0 mm 6 mps 734 mmHg 91%
    07:00 -3°C° 0 mm 6 mps 734 mmHg 91%
    08:00 -3°C° 0 mm 6 mps 733 mmHg 88%
    09:00 -2°C° 0 mm 6 mps 732 mmHg 85%
    10:00 -2°C° 0 mm 6 mps 732 mmHg 82%
    11:00 -2°C° 0 mm 6 mps 731 mmHg 80%
    12:00 -1°C° 0 mm 6 mps 731 mmHg 78%
    13:00 -1°C° 0 mm 6 mps 731 mmHg 76%
    14:00 0°C° 0 mm 5 mps 730 mmHg 79%
    15:00 -1°C° 0 mm 5 mps 730 mmHg 82%
    16:00 -1°C° 0 mm 4 mps 730 mmHg 85%
    17:00 -1°C° 0 mm 4 mps 730 mmHg 87%
    18:00 -1°C° 0 mm 4 mps 731 mmHg 88%
    19:00 -1°C° 0 mm 4 mps 731 mmHg 90%
    20:00 -1°C° 0 mm 4 mps 731 mmHg 91%
    21:00 0°C° 0 mm 4 mps 731 mmHg 92%
    22:00 +1°C° 0 mm 3 mps 732 mmHg 93%
    23:00 +1°C° 0 mm 3 mps 732 mmHg 93%

    Day after tomorrow, 14 December, Saturday

    Time Temperature Precipitation Wind Pressure Humidity
    00:00 +1°C° 0 mm 4 mps 732 mmHg 92%
    01:00 +1°C° 0 mm 4 mps 733 mmHg 92%
    02:00 +1°C° 0.1 mm 4 mps 733 mmHg 92%
    03:00 +1°C° 0.1 mm 4 mps 733 mmHg 93%
    04:00 +1°C° 0.1 mm 4 mps 733 mmHg 93%
    05:00 +1°C° 0.3 mm 4 mps 733 mmHg 94%
    06:00 +1°C° 0.3 mm 4 mps 734 mmHg 94%
    07:00 +3°C° 0.3 mm 4 mps 734 mmHg 95%
    08:00 +3°C° 0 mm 4 mps 734 mmHg 93%
    09:00 +2°C° 0 mm 5 mps 734 mmHg 92%
    10:00 +3°C° 0 mm 6 mps 735 mmHg 90%
    11:00 +3°C° 0.1 mm 6 mps 735 mmHg 87%
    12:00 +3°C° 0.1 mm 6 mps 734 mmHg 84%
    13:00 +4°C° 0.1 mm 6 mps 734 mmHg 80%
    14:00 +3°C° 0.7 mm 6 mps 734 mmHg 84%
    15:00 +3°C° 0.7 mm 5 mps 735 mmHg 89%
    16:00 +3°C° 0.7 mm 5 mps 735 mmHg 93%
    17:00 +3°C° 0.3 mm 6 mps 736 mmHg 87%
    18:00 +3°C° 0.3 mm 7 mps 737 mmHg 82%
    19:00 +2°C° 0.3 mm 8 mps 738 mmHg 76%
    20:00 +1°C° 0 mm 8 mps 739 mmHg 75%
    21:00 +2°C° 0 mm 7 mps 740 mmHg 75%
    22:00 +1°C° 0 mm 6 mps 741 mmHg 74%
    23:00 +1°C° 0 mm 6 mps 742 mmHg 77%

    15 December, Sunday

    Time Temperature Precipitation Wind Pressure Humidity
    00:00 +1°C° 0 mm 6 mps 742 mmHg 81%
    01:00 +1°C° 0 mm 6 mps 742 mmHg 84%
    02:00 +1°C° 0 mm 5 mps 743 mmHg 87%
    03:00 +1°C° 0 mm 4 mps 743 mmHg 89%
    04:00 +1°C° 0 mm 4 mps 743 mmHg 92%
    05:00 +1°C° 0 mm 4 mps 742 mmHg 92%
    06:00 +1°C° 0 mm 4 mps 742 mmHg 92%
    07:00 +1°C° 0 mm 5 mps 742 mmHg 93%
    08:00 +2°C° 0.2 mm 5 mps 741 mmHg 92%
    09:00 +3°C° 0.2 mm 6 mps 741 mmHg 92%
    10:00 +4°C° 0.2 mm 7 mps 740 mmHg 92%
    11:00 +5°C° 0.1 mm 8 mps 741 mmHg 82%
    12:00 +5°C° 0.1 mm 8 mps 741 mmHg 72%
    13:00 +6°C° 0.1 mm 8 mps 742 mmHg 62%
    14:00 +5°C° 0 mm 9 mps 743 mmHg 62%
    15:00 +3°C° 0 mm 9 mps 744 mmHg 63%
    16:00 +2°C° 0 mm 9 mps 745 mmHg 63%
    17:00 +1°C° 0 mm 8 mps 746 mmHg 67%
    18:00 +2°C° 0 mm 7 mps 747 mmHg 70%
    19:00 +1°C° 0 mm 6 mps 748 mmHg 74%
    20:00 +1°C° 0 mm 5 mps 749 mmHg 76%
    21:00 0°C° 0 mm 4 mps 749 mmHg 78%
    22:00 0°C° 0 mm 4 mps 750 mmHg 80%
    23:00 0°C° 0 mm 4 mps 750 mmHg 81%

    16 December, Monday

    Time Temperature Precipitation Wind Pressure Humidity
    00:00 0°C° 0 mm 4 mps 750 mmHg 81%
    01:00 0°C° 0 mm 5 mps 750 mmHg 81%
    02:00 +1°C° 0 mm 5 mps 750 mmHg 82%
    03:00 +1°C° 0 mm 5 mps 749 mmHg 84%
    04:00 +2°C° 0 mm 5 mps 749 mmHg 85%
    05:00 +2°C° 0 mm 5 mps 749 mmHg 85%
    06:00 +3°C° 0 mm 5 mps 750 mmHg 86%
    07:00 +3°C° 0 mm 5 mps 750 mmHg 86%
    08:00 +3°C° 0 mm 5 mps 750 mmHg 87%
    09:00 +4°C° 0 mm 4 mps 750 mmHg 89%
    10:00 +4°C° 0 mm 4 mps 750 mmHg 90%
    11:00 +5°C° 0 mm 4 mps 750 mmHg 89%
    12:00 +5°C° 0 mm 3 mps 750 mmHg 87%
    13:00 +7°C° 0 mm 3 mps 750 mmHg 85%
    14:00 +7°C° 0 mm 3 mps 750 mmHg 88%
    15:00 +5°C° 0 mm 3 mps 750 mmHg 91%
    16:00 +5°C° 0 mm 3 mps 750 mmHg 94%
    17:00 +5°C° 0.1 mm 3 mps 749 mmHg 95%
    18:00 +5°C° 0.1 mm 3 mps 749 mmHg 95%
    19:00 +5°C° 0.1 mm 3 mps 749 mmHg 96%
    20:00 +5°C° 0.5 mm 3 mps 749 mmHg 96%
    21:00 +7°C° 0.5 mm 3 mps 749 mmHg 95%
    22:00 +7°C° 0.5 mm 3 mps 749 mmHg 95%
    23:00 +6°C° 0 mm 4 mps 748 mmHg 93%

    17 December, Tuesday

    Time Temperature Precipitation Wind Pressure Humidity
    00:00 +6°C° 0 mm 4 mps 748 mmHg 90%
    01:00 +6°C° 0 mm 4 mps 748 mmHg 88%
    02:00 +6°C° 0 mm 4 mps 748 mmHg 89%
    03:00 +6°C° 0 mm 4 mps 748 mmHg 90%
    04:00 +5°C° 0 mm 4 mps 748 mmHg 90%
    05:00 +5°C° 0 mm 4 mps 748 mmHg 88%
    06:00 +5°C° 0 mm 4 mps 748 mmHg 85%
    07:00 +5°C° 0 mm 4 mps 748 mmHg 82%
    08:00 +5°C° 0 mm 4 mps 748 mmHg 82%
    09:00 +5°C° 0 mm 3 mps 749 mmHg 83%
    10:00 +6°C° 0 mm 2 mps 749 mmHg 83%
    11:00 +5°C° 0.1 mm 3 mps 749 mmHg 84%
    12:00 +7°C° 0.1 mm 3 mps 749 mmHg 84%
    13:00 +7°C° 0.1 mm 3 mps 749 mmHg 85%
    14:00 +7°C° 0.2 mm 3 mps 749 mmHg 87%
    15:00 +7°C° 0.2 mm 2 mps 750 mmHg 90%
    16:00 +6°C° 0.2 mm 2 mps 750 mmHg 93%
    17:00 +6°C° 0.4 mm 2 mps 750 mmHg 94%
    18:00 +6°C° 0.4 mm 2 mps 750 mmHg 96%
    19:00 +6°C° 0.4 mm 2 mps 750 mmHg 97%
    20:00 +5°C° 1 mm 3 mps 751 mmHg 97%
    21:00 +5°C° 1 mm 3 mps 751 mmHg 96%
    22:00 +5°C° 1 mm 4 mps 752 mmHg 95%
    23:00 +5°C° 0.5 mm 4 mps 753 mmHg 92%
    Show more